| time (UTC) | temp F | wind direction | speed knots | gust knots | rain 1hr in | rain 24hr in | rain mn in | humidity % | barometer mb |
| 20260906083003 | 92 | 209 | 1.7 | 5.2 | 0.00 | 0.00 | 0.00 | 22 | 1025.0 |
| 20260906082703 | 91 | 221 | 0.9 | 5.2 | 0.00 | 0.00 | 0.00 | 22 | 1024.9 |
| 20260906082404 | 91 | 235 | 1.7 | 5.2 | 0.00 | 0.00 | 0.00 | 22 | 1024.9 |
| 20260906082318 | 92 | 235 | 1.7 | 5.2 | 0.00 | 0.00 | 0.00 | 23 | 1025.1 |
| 20260906081803 | 91 | 229 | 1.7 | 3.5 | 0.00 | 0.00 | 0.00 | 23 | 1025.0 |
| 20260906081503 | 94 | 227 | 0.9 | 3.5 | 0.00 | 0.00 | 0.00 | 22 | 1025.1 |
| 20260906081203 | 93 | 231 | 0.9 | 2.6 | 0.00 | 0.00 | 0.00 | 22 | 1025.0 |
| 20260906080903 | 93 | 189 | 0.9 | 2.6 | 0.00 | 0.00 | 0.00 | 22 | 1025.0 |
| 20260906080603 | 92 | 138 | 0.9 | 2.6 | 0.00 | 0.00 | 0.00 | 22 | 1025.0 |
| 20260906080303 | 92 | 140 | 0.9 | 2.6 | 0.00 | 0.00 | 0.00 | 22 | 1024.9 |
| 20260906080217 | 91 | 141 | 0.9 | 2.6 | 0.00 | 0.00 | 0.00 | 23 | 1025.3 |
| 20260906075703 | 92 | 170 | 0.9 | 2.6 | 0.00 | 0.00 | 0.00 | 23 | 1025.1 |
| 20260906075403 | 92 | 218 | 0.9 | 2.6 | 0.00 | 0.00 | 0.00 | 22 | 1025.1 |
| 20260906075318 | 91 | 229 | 0.9 | 1.7 | 0.00 | 0.00 | 0.00 | 23 | 1025.2 |
| 20260906074803 | 91 | 204 | 0.9 | 1.7 | 0.00 | 0.00 | 0.00 | 23 | 1025.1 |
| 20260906074503 | 92 | 142 | 0.9 | 1.7 | 0.00 | 0.00 | 0.00 | 22 | 1025.1 |
| 20260906074203 | 90 | 139 | 0.9 | 1.7 | 0.00 | 0.00 | 0.00 | 23 | 1025.0 |
| 20260906073904 | 91 | 142 | 0.9 | 1.7 | 0.00 | 0.00 | 0.00 | 23 | 1025.1 |
| 20260906073603 | 91 | 143 | 0.9 | 1.7 | 0.00 | 0.00 | 0.00 | 24 | 1024.8 |
| 20260906073303 | 91 | 130 | 0.9 | 1.7 | 0.00 | 0.00 | 0.00 | 23 | 1024.6 |
| 20260906073004 | 90 | 127 | 0.9 | 1.7 | 0.00 | 0.00 | 0.00 | 24 | 1024.9 |
| 20260906072703 | 91 | 138 | 0.9 | 1.7 | 0.00 | 0.00 | 0.00 | 24 | 1025.0 |
| 20260906072403 | 90 | 164 | 0.9 | 1.7 | 0.00 | 0.00 | 0.00 | 23 | 1025.0 |
| 20260906072318 | 90 | 164 | 0.9 | 1.7 | 0.00 | 0.00 | 0.00 | 24 | 1024.9 |
| 20260906071803 | 90 | 159 | 0.0 | 1.7 | 0.00 | 0.00 | 0.00 | 24 | 1024.8 |
| 20260906071717 | 91 | 149 | 0.0 | 1.7 | 0.00 | 0.00 | 0.00 | 24 | 1024.8 |
| 20260906071203 | 90 | 101 | 0.0 | 0.9 | 0.00 | 0.00 | 0.00 | 24 | 1024.8 |
| 20260906070903 | 89 | 92 | 0.0 | 1.7 | 0.00 | 0.00 | 0.00 | 24 | 1024.9 |
| 20260906070603 | 89 | 89 | 0.9 | 1.7 | 0.00 | 0.00 | 0.00 | 25 | 1024.9 |
| 20260906070303 | 88 | 99 | 0.9 | 1.7 | 0.00 | 0.00 | 0.00 | 25 | 1024.8 |
| 20260906070004 | 88 | 105 | 0.9 | 1.7 | 0.00 | 0.00 | 0.00 | 25 | 1024.9 |
| 20260906065703 | 88 | 109 | 0.9 | 1.7 | 0.00 | 0.00 | 0.00 | 25 | 1024.9 |
| 20260906065403 | 88 | 96 | 0.9 | 1.7 | 0.00 | 0.00 | 0.00 | 25 | 1024.9 |
| 20260906065103 | 87 | 67 | 0.9 | 2.6 | 0.00 | 0.00 | 0.00 | 25 | 1024.8 |
| 20260906064803 | 86 | 69 | 0.9 | 2.6 | 0.00 | 0.00 | 0.00 | 27 | 1024.5 |
| 20260906064717 | 85 | 69 | 0.9 | 2.6 | 0.00 | 0.00 | 0.00 | 27 | 1024.7 |
| 20260906064203 | 86 | 75 | 0.9 | 1.7 | 0.00 | 0.00 | 0.00 | 27 | 1024.8 |
| 20260906063904 | 85 | 69 | 1.7 | 2.6 | 0.00 | 0.00 | 0.00 | 27 | 1024.4 |
| 20260906063603 | 85 | 61 | 1.7 | 2.6 | 0.00 | 0.00 | 0.00 | 28 | 1024.5 |
| 20260906063303 | 84 | 59 | 1.7 | 2.6 | 0.00 | 0.00 | 0.00 | 28 | 1024.5 |
| 20260906063003 | 84 | 59 | 1.7 | 2.6 | 0.00 | 0.00 | 0.00 | 28 | 1024.3 |
| 20260906062703 | 85 | 63 | 1.7 | 3.5 | 0.00 | 0.00 | 0.00 | 28 | 1024.5 |
| 20260906062403 | 84 | 68 | 1.7 | 3.5 | 0.00 | 0.00 | 0.00 | 28 | 1024.4 |
| 20260906062103 | 83 | 73 | 1.7 | 3.5 | 0.00 | 0.00 | 0.00 | 29 | 1024.3 |
| 20260906062017 | 83 | 72 | 1.7 | 3.5 | 0.00 | 0.00 | 0.00 | 29 | 1024.6 |
| 20260906061503 | 84 | 79 | 0.9 | 2.6 | 0.00 | 0.00 | 0.00 | 29 | 1024.3 |
| 20260906061203 | 83 | 69 | 1.7 | 2.6 | 0.00 | 0.00 | 0.00 | 30 | 1024.3 |
| 20260906060903 | 83 | 69 | 1.7 | 2.6 | 0.00 | 0.00 | 0.00 | 31 | 1024.3 |
| 20260906060818 | 83 | 66 | 1.7 | 2.6 | 0.00 | 0.00 | 0.00 | 31 | 1024.2 |
| 20260906060303 | 83 | 62 | 0.9 | 2.6 | 0.00 | 0.00 | 0.00 | 31 | 1024.5 |
| 20260906060003 | 84 | 39 | 0.9 | 2.6 | 0.00 | 0.00 | 0.00 | 29 | 1024.4 |
| 20260906055703 | 83 | 19 | 0.9 | 2.6 | 0.00 | 0.00 | 0.00 | 30 | 1024.2 |
| 20260906055617 | 83 | 12 | 0.9 | 2.6 | 0.00 | 0.00 | 0.00 | 30 | 1024.2 |
| 20260906055103 | 82 | 36 | 0.9 | 1.7 | 0.00 | 0.00 | 0.00 | 31 | 1024.3 |
| 20260906054803 | 82 | 41 | 0.9 | 1.7 | 0.00 | 0.00 | 0.00 | 31 | 1024.3 |
| 20260906054503 | 82 | 71 | 0.9 | 1.7 | 0.00 | 0.00 | 0.00 | 31 | 1024.4 |
| 20260906054204 | 82 | 73 | 0.9 | 1.7 | 0.00 | 0.00 | 0.00 | 31 | 1024.1 |
| 20260906053903 | 82 | 53 | 0.9 | 1.7 | 0.00 | 0.00 | 0.00 | 31 | 1024.1 |
| 20260906053603 | 82 | 43 | 0.9 | 1.7 | 0.00 | 0.00 | 0.00 | 32 | 1024.1 |
| 20260906053303 | 80 | 39 | 0.9 | 2.6 | 0.00 | 0.00 | 0.00 | 32 | 1024.1 |
| 20260906053003 | 80 | 48 | 0.9 | 2.6 | 0.00 | 0.00 | 0.00 | 32 | 1023.9 |
| 20260906052703 | 80 | 47 | 0.9 | 2.6 | 0.00 | 0.00 | 0.00 | 32 | 1024.3 |
| 20260906052403 | 80 | 51 | 0.9 | 2.6 | 0.00 | 0.00 | 0.00 | 32 | 1024.3 |
| 20260906052104 | 80 | 51 | 0.9 | 2.6 | 0.00 | 0.00 | 0.00 | 33 | 1024.3 |
| 20260906051803 | 80 | 44 | 0.9 | 2.6 | 0.00 | 0.00 | 0.00 | 33 | 1024.4 |
| 20260906051503 | 80 | 38 | 0.9 | 2.6 | 0.00 | 0.00 | 0.00 | 33 | 1024.3 |
| 20260906051203 | 80 | 33 | 0.9 | 2.6 | 0.00 | 0.00 | 0.00 | 33 | 1024.3 |
| 20260906050903 | 79 | 42 | 0.9 | 1.7 | 0.00 | 0.00 | 0.00 | 32 | 1024.3 |
| 20260906050603 | 79 | 48 | 0.9 | 1.7 | 0.00 | 0.00 | 0.00 | 33 | 1024.3 |
| 20260906050303 | 79 | 52 | 0.9 | 1.7 | 0.00 | 0.00 | 0.00 | 33 | 1024.2 |
| 20260906050003 | 79 | 60 | 0.9 | 1.7 | 0.00 | 0.00 | 0.00 | 32 | 1024.3 |
| 20260906045703 | 79 | 67 | 0.9 | 1.7 | 0.00 | 0.00 | 0.00 | 33 | 1024.3 |
| 20260906045403 | 78 | 73 | 0.9 | 2.6 | 0.00 | 0.00 | 0.00 | 33 | 1024.3 |
| 20260906045103 | 78 | 77 | 0.9 | 2.6 | 0.00 | 0.00 | 0.00 | 34 | 1024.2 |
| 20260906044803 | 78 | 76 | 0.9 | 2.6 | 0.00 | 0.00 | 0.00 | 34 | 1024.3 |
| 20260906044503 | 78 | 75 | 0.9 | 2.6 | 0.00 | 0.00 | 0.00 | 34 | 1024.0 |
| 20260906044203 | 77 | 75 | 0.9 | 2.6 | 0.00 | 0.00 | 0.00 | 34 | 1024.3 |
| 20260906043903 | 77 | 69 | 1.7 | 2.6 | 0.00 | 0.00 | 0.00 | 34 | 1024.2 |
| 20260906043603 | 77 | 66 | 1.7 | 3.5 | 0.00 | 0.00 | 0.00 | 34 | 1024.2 |
| 20260906043303 | 76 | 65 | 1.7 | 3.5 | 0.00 | 0.00 | 0.00 | 35 | 1024.0 |
| 20260906043003 | 76 | 64 | 1.7 | 3.5 | 0.00 | 0.00 | 0.00 | 35 | 1024.2 |
| 20260906042704 | 76 | 69 | 0.9 | 2.6 | 0.00 | 0.00 | 0.00 | 35 | 1023.9 |
| 20260906042617 | 76 | 67 | 1.7 | 2.6 | 0.00 | 0.00 | 0.00 | 35 | 1023.9 |
| 20260906042103 | 76 | 56 | 0.9 | 2.6 | 0.00 | 0.00 | 0.00 | 35 | 1024.0 |
| 20260906041803 | 76 | 58 | 0.9 | 2.6 | 0.00 | 0.00 | 0.00 | 35 | 1023.8 |
| 20260906041504 | 76 | 63 | 0.9 | 2.6 | 0.00 | 0.00 | 0.00 | 35 | 1023.7 |
| 20260906041203 | 76 | 60 | 0.9 | 1.7 | 0.00 | 0.00 | 0.00 | 35 | 1023.7 |
| 20260906040903 | 76 | 60 | 0.9 | 3.5 | 0.00 | 0.00 | 0.00 | 35 | 1023.7 |
| 20260906040604 | 76 | 60 | 1.7 | 3.5 | 0.00 | 0.00 | 0.00 | 35 | 1023.9 |
| 20260906040303 | 76 | 59 | 1.7 | 3.5 | 0.00 | 0.00 | 0.00 | 35 | 1023.8 |
| 20260906040003 | 76 | 59 | 1.7 | 3.5 | 0.00 | 0.00 | 0.00 | 35 | 1023.7 |
| 20260906035618 | 76 | 53 | 0.9 | 3.5 | 0.00 | 0.00 | 0.00 | 35 | 1023.7 |
| 20260906035103 | 76 | 54 | 1.7 | 3.5 | 0.00 | 0.00 | 0.00 | 35 | 1023.9 |
| 20260906034804 | 76 | 53 | 2.6 | 3.5 | 0.00 | 0.00 | 0.00 | 35 | 1023.9 |
| 20260906034718 | 76 | 53 | 2.6 | 3.5 | 0.00 | 0.00 | 0.00 | 35 | 1023.8 |
| 20260906034203 | 76 | 58 | 2.6 | 3.5 | 0.00 | 0.00 | 0.00 | 35 | 1023.9 |
| 20260906033903 | 76 | 61 | 2.6 | 5.2 | 0.00 | 0.00 | 0.00 | 35 | 1023.5 |
| 20260906033604 | 77 | 63 | 2.6 | 5.2 | 0.00 | 0.00 | 0.00 | 35 | 1023.3 |
| 20260906033304 | 77 | 64 | 1.7 | 5.2 | 0.00 | 0.00 | 0.00 | 35 | 1023.5 |
| 20260906033003 | 77 | 63 | 1.7 | 3.5 | 0.00 | 0.00 | 0.00 | 35 | 1023.5 |
| 20260906032703 | 77 | 63 | 1.7 | 3.5 | 0.00 | 0.00 | 0.00 | 35 | 1023.8 |
| 20260906032403 | 77 | 65 | 2.6 | 5.2 | 0.00 | 0.00 | 0.00 | 34 | 1023.4 |
| 20260906032103 | 77 | 63 | 2.6 | 5.2 | 0.00 | 0.00 | 0.00 | 35 | 1023.5 |
| 20260906031803 | 77 | 61 | 1.7 | 5.2 | 0.00 | 0.00 | 0.00 | 34 | 1023.5 |
| 20260906031503 | 77 | 56 | 1.7 | 2.6 | 0.00 | 0.00 | 0.00 | 34 | 1023.5 |
| 20260906031203 | 77 | 53 | 1.7 | 3.5 | 0.00 | 0.00 | 0.00 | 35 | 1023.3 |
| 20260906030903 | 77 | 53 | 2.6 | 3.5 | 0.00 | 0.00 | 0.00 | 35 | 1023.5 |
| 20260906030603 | 77 | 56 | 2.6 | 3.5 | 0.00 | 0.00 | 0.00 | 35 | 1023.4 |
| 20260906030517 | 77 | 57 | 2.6 | 3.5 | 0.00 | 0.00 | 0.00 | 35 | 1023.5 |
| 20260906030004 | 77 | 54 | 2.6 | 3.5 | 0.00 | 0.00 | 0.00 | 35 | 1023.4 |
| 20260906025703 | 77 | 54 | 2.6 | 5.2 | 0.00 | 0.00 | 0.00 | 35 | 1023.7 |
| 20260906025403 | 77 | 52 | 2.6 | 5.2 | 0.00 | 0.00 | 0.00 | 35 | 1023.2 |
| 20260906025103 | 77 | 56 | 1.7 | 5.2 | 0.00 | 0.00 | 0.00 | 35 | 1023.2 |
| 20260906024803 | 77 | 54 | 1.7 | 3.5 | 0.00 | 0.00 | 0.00 | 35 | 1023.1 |
| 20260906024503 | 77 | 50 | 0.9 | 3.5 | 0.00 | 0.00 | 0.00 | 35 | 1023.2 |
| 20260906024203 | 77 | 50 | 1.7 | 3.5 | 0.00 | 0.00 | 0.00 | 35 | 1023.1 |
| 20260906023903 | 77 | 50 | 1.7 | 3.5 | 0.00 | 0.00 | 0.00 | 34 | 1022.9 |
| 20260906023603 | 77 | 60 | 1.7 | 3.5 | 0.00 | 0.00 | 0.00 | 35 | 1023.0 |
| 20260906023518 | 77 | 60 | 1.7 | 3.5 | 0.00 | 0.00 | 0.00 | 35 | 1023.0 |
| 20260906023003 | 77 | 61 | 1.7 | 3.5 | 0.00 | 0.00 | 0.00 | 35 | 1023.1 |
| 20260906022703 | 77 | 63 | 1.7 | 3.5 | 0.00 | 0.00 | 0.00 | 34 | 1023.0 |
| 20260906022403 | 77 | 63 | 1.7 | 3.5 | 0.00 | 0.00 | 0.00 | 35 | 1023.2 |
| 20260906022103 | 77 | 64 | 1.7 | 3.5 | 0.00 | 0.00 | 0.00 | 34 | 1023.0 |
| 20260906021803 | 77 | 60 | 1.7 | 3.5 | 0.00 | 0.00 | 0.00 | 34 | 1023.0 |
| 20260906021717 | 77 | 59 | 1.7 | 3.5 | 0.00 | 0.00 | 0.00 | 34 | 1022.8 |
| 20260906021203 | 77 | 58 | 1.7 | 3.5 | 0.00 | 0.00 | 0.00 | 34 | 1023.0 |
| 20260906020903 | 77 | 61 | 1.7 | 3.5 | 0.00 | 0.00 | 0.00 | 34 | 1023.1 |
| 20260906020603 | 78 | 65 | 1.7 | 2.6 | 0.00 | 0.00 | 0.00 | 34 | 1023.1 |
| 20260906020303 | 78 | 67 | 0.9 | 2.6 | 0.00 | 0.00 | 0.00 | 34 | 1023.0 |
| 20260906020218 | 78 | 67 | 0.9 | 2.6 | 0.00 | 0.00 | 0.00 | 34 | 1023.0 |
| 20260906015703 | 78 | 56 | 0.9 | 2.6 | 0.00 | 0.00 | 0.00 | 34 | 1023.2 |
| 20260906015404 | 78 | 53 | 1.7 | 3.5 | 0.00 | 0.00 | 0.00 | 34 | 1023.0 |
| 20260906015317 | 78 | 51 | 1.7 | 3.5 | 0.00 | 0.00 | 0.00 | 34 | 1023.1 |
| 20260906014804 | 78 | 48 | 1.7 | 3.5 | 0.00 | 0.00 | 0.00 | 34 | 1023.2 |
| 20260906014503 | 78 | 40 | 1.7 | 3.5 | 0.00 | 0.00 | 0.00 | 34 | 1023.2 |
| 20260906014203 | 78 | 26 | 0.9 | 2.6 | 0.00 | 0.00 | 0.00 | 34 | 1023.0 |
| 20260906013903 | 78 | 36 | 0.9 | 1.7 | 0.00 | 0.00 | 0.00 | 34 | 1023.7 |
| 20260906013603 | 78 | 49 | 1.7 | 1.7 | 0.00 | 0.00 | 0.00 | 34 | 1023.3 |
| 20260906013303 | 78 | 64 | 0.9 | 1.7 | 0.00 | 0.00 | 0.00 | 34 | 1023.3 |
| 20260906013003 | 78 | 66 | 0.9 | 1.7 | 0.00 | 0.00 | 0.00 | 34 | 1023.0 |
| 20260906012703 | 78 | 61 | 0.9 | 1.7 | 0.00 | 0.00 | 0.00 | 34 | 1023.2 |
| 20260906012403 | 78 | 61 | 0.9 | 1.7 | 0.00 | 0.00 | 0.00 | 34 | 1023.2 |
| 20260906012317 | 78 | 61 | 0.9 | 1.7 | 0.00 | 0.00 | 0.00 | 34 | 1023.2 |
| 20260906011803 | 78 | 62 | 0.9 | 1.7 | 0.00 | 0.00 | 0.00 | 34 | 1023.2 |
| 20260906011503 | 78 | 64 | 0.9 | 1.7 | 0.00 | 0.00 | 0.00 | 34 | 1023.4 |
| 20260906011203 | 78 | 64 | 0.9 | 1.7 | 0.00 | 0.00 | 0.00 | 34 | 1023.3 |
| 20260906010903 | 78 | 59 | 0.9 | 2.6 | 0.00 | 0.00 | 0.00 | 34 | 1023.7 |
| 20260906010818 | 78 | 59 | 0.9 | 2.6 | 0.00 | 0.00 | 0.00 | 34 | 1023.7 |
| 20260906010303 | 78 | 47 | 1.7 | 2.6 | 0.00 | 0.00 | 0.00 | 34 | 1023.3 |
| 20260906010003 | 78 | 28 | 1.7 | 2.6 | 0.00 | 0.00 | 0.00 | 34 | 1023.4 |
| 20260906005703 | 78 | 12 | 0.9 | 2.6 | 0.00 | 0.00 | 0.00 | 34 | 1023.5 |
| 20260906005617 | 78 | 6 | 0.9 | 2.6 | 0.00 | 0.00 | 0.00 | 34 | 1023.3 |
| 20260906005317 | 78 | 348 | 0.9 | 1.7 | 0.00 | 0.00 | 0.00 | 34 | 1023.4 |
| 20260906005017 | 78 | 342 | 0.9 | 1.7 | 0.00 | 0.00 | 0.00 | 33 | 1023.3 |
| 20260906004503 | 78 | 1 | 0.9 | 1.7 | 0.00 | 0.00 | 0.00 | 34 | 1023.4 |
| 20260906004203 | 78 | 14 | 0.9 | 1.7 | 0.00 | 0.00 | 0.00 | 34 | 1023.3 |
| 20260906003903 | 78 | 35 | 0.9 | 1.7 | 0.00 | 0.00 | 0.00 | 33 | 1023.3 |
| 20260906003603 | 78 | 41 | 0.9 | 2.6 | 0.00 | 0.00 | 0.00 | 33 | 1023.3 |
| 20260906003303 | 78 | 31 | 0.9 | 2.6 | 0.00 | 0.00 | 0.00 | 33 | 1023.2 |
| 20260906003003 | 78 | 11 | 0.9 | 2.6 | 0.00 | 0.00 | 0.00 | 33 | 1023.3 |
| 20260906002703 | 78 | 353 | 0.9 | 1.7 | 0.00 | 0.00 | 0.00 | 33 | 1023.3 |
| 20260906002403 | 78 | 351 | 0.9 | 1.7 | 0.00 | 0.00 | 0.00 | 34 | 1023.4 |
| 20260906002103 | 78 | 17 | 0.9 | 1.7 | 0.00 | 0.00 | 0.00 | 33 | 1023.5 |
| 20260906001803 | 78 | 44 | 0.9 | 1.7 | 0.00 | 0.00 | 0.00 | 33 | 1023.5 |
| 20260906001504 | 78 | 51 | 0.9 | 2.6 | 0.00 | 0.00 | 0.00 | 33 | 1023.4 |
| 20260906001203 | 78 | 57 | 1.7 | 2.6 | 0.00 | 0.00 | 0.00 | 33 | 1023.4 |
| 20260906000903 | 78 | 60 | 1.7 | 3.5 | 0.00 | 0.00 | 0.00 | 33 | 1023.3 |
| 20260906000603 | 78 | 69 | 1.7 | 3.5 | 0.00 | 0.00 | 0.00 | 33 | 1023.2 |
| 20260906000304 | 78 | 73 | 1.7 | 3.5 | 0.00 | 0.00 | 0.00 | 33 | 1023.5 |
| 20260906000003 | 78 | 76 | 1.7 | 2.6 | 0.00 | 0.00 | 0.00 | 33 | 1023.3 |
| 20260905235703 | 79 | 72 | 1.7 | 3.5 | 0.00 | 0.00 | 0.00 | 33 | 1023.1 |
| 20260905235403 | 79 | 64 | 1.7 | 3.5 | 0.00 | 0.00 | 0.00 | 33 | 1023.4 |
| 20260905235103 | 79 | 63 | 2.6 | 5.2 | 0.00 | 0.00 | 0.00 | 33 | 1023.4 |
| 20260905234803 | 79 | 60 | 2.6 | 5.2 | 0.00 | 0.00 | 0.00 | 33 | 1023.5 |
| 20260905234503 | 79 | 59 | 2.6 | 5.2 | 0.00 | 0.00 | 0.00 | 33 | 1023.4 |
| 20260905234203 | 80 | 59 | 2.6 | 5.2 | 0.00 | 0.00 | 0.00 | 33 | 1023.5 |
| 20260905233903 | 80 | 59 | 1.7 | 5.2 | 0.00 | 0.00 | 0.00 | 33 | 1023.7 |
| 20260905233818 | 80 | 61 | 1.7 | 5.2 | 0.00 | 0.00 | 0.00 | 33 | 1023.3 |
| 20260905233517 | 80 | 65 | 1.7 | 5.2 | 0.00 | 0.00 | 0.00 | 33 | 1023.5 |
| 20260905233217 | 80 | 77 | 1.7 | 2.6 | 0.00 | 0.00 | 0.00 | 33 | 1023.8 |
| 20260905232703 | 80 | 83 | 0.9 | 2.6 | 0.00 | 0.00 | 0.00 | 32 | 1023.8 |
| 20260905232403 | 81 | 74 | 0.9 | 1.7 | 0.00 | 0.00 | 0.00 | 32 | 1023.8 |
| 20260905232103 | 81 | 55 | 0.9 | 1.7 | 0.00 | 0.00 | 0.00 | 32 | 1023.7 |
| 20260905232018 | 81 | 53 | 0.9 | 1.7 | 0.00 | 0.00 | 0.00 | 32 | 1023.7 |
| 20260905231503 | 80 | 35 | 0.9 | 1.7 | 0.00 | 0.00 | 0.00 | 32 | 1023.9 |
| 20260905231203 | 80 | 42 | 0.9 | 1.7 | 0.00 | 0.00 | 0.00 | 32 | 1024.0 |
| 20260905230903 | 80 | 63 | 0.9 | 1.7 | 0.00 | 0.00 | 0.00 | 32 | 1023.9 |
| 20260905230603 | 80 | 67 | 0.9 | 1.7 | 0.00 | 0.00 | 0.00 | 32 | 1023.9 |
| 20260905230304 | 80 | 68 | 0.9 | 1.7 | 0.00 | 0.00 | 0.00 | 32 | 1023.7 |
| 20260905230217 | 80 | 68 | 0.9 | 1.7 | 0.00 | 0.00 | 0.00 | 32 | 1024.0 |
| 20260905225919 | 80 | 68 | 0.9 | 1.7 | 0.00 | 0.00 | 0.00 | 32 | 1023.8 |
| 20260905225403 | 80 | 65 | 0.9 | 1.7 | 0.00 | 0.00 | 0.00 | 32 | 1024.0 |
| 20260905225318 | 80 | 65 | 0.9 | 1.7 | 0.00 | 0.00 | 0.00 | 32 | 1023.9 |
| 20260905224803 | 80 | 60 | 1.7 | 2.6 | 0.00 | 0.00 | 0.00 | 32 | 1024.0 |
| 20260905224503 | 80 | 56 | 1.7 | 2.6 | 0.00 | 0.00 | 0.00 | 32 | 1024.1 |
| 20260905224203 | 80 | 56 | 1.7 | 2.6 | 0.00 | 0.00 | 0.00 | 32 | 1024.0 |
| 20260905223903 | 81 | 57 | 1.7 | 2.6 | 0.00 | 0.00 | 0.00 | 31 | 1024.2 |
| 20260905223817 | 81 | 57 | 1.7 | 2.6 | 0.00 | 0.00 | 0.00 | 31 | 1024.2 |
| 20260905223303 | 81 | 67 | 0.9 | 2.6 | 0.00 | 0.00 | 0.00 | 32 | 1024.1 |
| 20260905223004 | 81 | 68 | 0.9 | 1.7 | 0.00 | 0.00 | 0.00 | 32 | 1024.2 |
| 20260905222703 | 81 | 68 | 0.9 | 1.7 | 0.00 | 0.00 | 0.00 | 31 | 1024.3 |
| 20260905222618 | 81 | 68 | 0.9 | 1.7 | 0.00 | 0.00 | 0.00 | 32 | 1024.0 |
| 20260905222104 | 81 | 68 | 0.9 | 1.7 | 0.00 | 0.00 | 0.00 | 31 | 1024.1 |
| 20260905221803 | 81 | 68 | 0.0 | 1.7 | 0.00 | 0.00 | 0.00 | 32 | 1024.1 |
| 20260905221503 | 81 | 68 | 0.0 | 1.7 | 0.00 | 0.00 | 0.00 | 32 | 1024.0 |
| 20260905221203 | 81 | 71 | 0.9 | 1.7 | 0.00 | 0.00 | 0.00 | 31 | 1024.0 |
| 20260905221117 | 81 | 70 | 0.9 | 1.7 | 0.00 | 0.00 | 0.00 | 31 | 1024.0 |
| 20260905220603 | 81 | 63 | 1.7 | 3.5 | 0.00 | 0.00 | 0.00 | 31 | 1023.9 |
| 20260905220303 | 81 | 61 | 1.7 | 3.5 | 0.00 | 0.00 | 0.00 | 31 | 1024.0 |
| 20260905220003 | 81 | 59 | 1.7 | 2.6 | 0.00 | 0.00 | 0.00 | 31 | 1024.3 |
| 20260905215703 | 81 | 57 | 1.7 | 2.6 | 0.00 | 0.00 | 0.00 | 31 | 1024.1 |
| 20260905215403 | 81 | 49 | 0.9 | 2.6 | 0.00 | 0.00 | 0.00 | 31 | 1024.3 |
| 20260905215103 | 82 | 44 | 0.9 | 2.6 | 0.00 | 0.00 | 0.00 | 31 | 1024.2 |
| 20260905214803 | 82 | 39 | 0.9 | 2.6 | 0.00 | 0.00 | 0.00 | 31 | 1024.1 |
| 20260905214717 | 82 | 35 | 0.9 | 2.6 | 0.00 | 0.00 | 0.00 | 31 | 1024.1 |
| 20260905214203 | 82 | 327 | 0.0 | 0.9 | 0.00 | 0.00 | 0.00 | 32 | 1024.0 |
| 20260905213903 | 81 | 333 | 0.0 | 0.9 | 0.00 | 0.00 | 0.00 | 32 | 1024.2 |
| 20260905213817 | 81 | 333 | 0.0 | 0.9 | 0.00 | 0.00 | 0.00 | 32 | 1024.1 |
| 20260905213519 | 82 | 23 | 0.0 | 0.9 | 0.00 | 0.00 | 0.00 | 32 | 1024.2 |
| 20260905213003 | 82 | 10 | 0.0 | 0.9 | 0.00 | 0.00 | 0.00 | 32 | 1024.2 |
| 20260905212704 | 82 | 8 | 0.9 | 1.7 | 0.00 | 0.00 | 0.00 | 31 | 1024.1 |
| 20260905212403 | 82 | 358 | 0.9 | 1.7 | 0.00 | 0.00 | 0.00 | 32 | 1024.2 |
| 20260905212103 | 82 | 8 | 0.9 | 1.7 | 0.00 | 0.00 | 0.00 | 32 | 1024.1 |
| 20260905211803 | 82 | 4 | 0.9 | 1.7 | 0.00 | 0.00 | 0.00 | 32 | 1024.2 |
| 20260905211504 | 82 | 7 | 0.9 | 1.7 | 0.00 | 0.00 | 0.00 | 32 | 1024.2 |
| 20260905211203 | 82 | 339 | 0.9 | 1.7 | 0.00 | 0.00 | 0.00 | 32 | 1024.1 |
| 20260905210904 | 82 | 316 | 0.0 | 1.7 | 0.00 | 0.00 | 0.00 | 32 | 1024.3 |
| 20260905210603 | 82 | 312 | 0.0 | 1.7 | 0.00 | 0.00 | 0.00 | 32 | 1024.0 |
| 20260905210518 | 82 | 310 | 0.0 | 1.7 | 0.00 | 0.00 | 0.00 | 32 | 1024.2 |
| 20260905210218 | 83 | 295 | 0.0 | 1.7 | 0.00 | 0.00 | 0.00 | 32 | 1024.2 |
| 20260905205703 | 83 | 256 | 0.9 | 2.6 | 0.00 | 0.00 | 0.00 | 31 | 1024.2 |
| 20260905205618 | 83 | 254 | 0.9 | 2.6 | 0.00 | 0.00 | 0.00 | 31 | 1024.2 |
| 20260905205103 | 83 | 248 | 0.9 | 2.6 | 0.00 | 0.00 | 0.00 | 31 | 1024.0 |
| 20260905205017 | 83 | 247 | 0.9 | 2.6 | 0.00 | 0.00 | 0.00 | 31 | 1024.2 |
| 20260905204503 | 83 | 246 | 0.0 | 1.7 | 0.00 | 0.00 | 0.00 | 31 | 1024.2 |
| 20260905204203 | 83 | 13 | 0.0 | 0.9 | 0.00 | 0.00 | 0.00 | 31 | 1024.1 |
| 20260905203903 | 83 | 26 | 0.0 | 0.9 | 0.00 | 0.00 | 0.00 | 31 | 1024.3 |
| 20260905203816 | 83 | 26 | 0.0 | 0.9 | 0.00 | 0.00 | 0.00 | 30 | 1024.1 |
| 20260905203303 | 83 | 26 | 0.9 | 1.7 | 0.00 | 0.00 | 0.00 | 31 | 1024.2 |
| 20260905203003 | 83 | 26 | 0.0 | 1.7 | 0.00 | 0.00 | 0.00 | 31 | 1024.1 |
| 20260905202703 | 83 | 28 | 0.0 | 1.7 | 0.00 | 0.00 | 0.00 | 31 | 1024.1 |
| 20260905202403 | 83 | 38 | 0.0 | 0.9 | 0.00 | 0.00 | 0.00 | 31 | 1024.2 |
| 20260905202103 | 83 | 39 | 0.0 | 0.9 | 0.00 | 0.00 | 0.00 | 31 | 1024.2 |
| 20260905201803 | 83 | 44 | 0.0 | 0.9 | 0.00 | 0.00 | 0.00 | 31 | 1024.0 |
| 20260905201503 | 83 | 50 | 0.0 | 0.9 | 0.00 | 0.00 | 0.00 | 30 | 1024.0 |
| 20260905201419 | 83 | 50 | 0.0 | 0.9 | 0.00 | 0.00 | 0.00 | 30 | 1024.2 |
| 20260905201118 | 83 | 50 | 0.0 | 0.9 | 0.00 | 0.00 | 0.00 | 30 | 1024.2 |
| 20260905200603 | 83 | 50 | 0.0 | 0.9 | 0.00 | 0.00 | 0.00 | 29 | 1024.2 |
| 20260905200304 | 83 | 50 | 0.0 | 0.9 | 0.00 | 0.00 | 0.00 | 29 | 1024.2 |
| 20260905200218 | 83 | 50 | 0.0 | 0.9 | 0.00 | 0.00 | 0.00 | 29 | 1024.1 |
| 20260905195703 | 83 | 50 | 0.0 | 0.9 | 0.00 | 0.00 | 0.00 | 29 | 1024.1 |
| 20260905195404 | 83 | 50 | 0.0 | 0.9 | 0.00 | 0.00 | 0.00 | 29 | 1024.3 |
| 20260905195103 | 83 | 50 | 0.0 | 0.9 | 0.00 | 0.00 | 0.00 | 29 | 1024.3 |
| 20260905194803 | 83 | 50 | 0.0 | 0.9 | 0.00 | 0.00 | 0.00 | 29 | 1024.3 |
| 20260905194503 | 83 | 50 | 0.0 | 0.9 | 0.00 | 0.00 | 0.00 | 29 | 1024.5 |
| 20260905194203 | 84 | 50 | 0.0 | 0.9 | 0.00 | 0.00 | 0.00 | 29 | 1024.1 |
| 20260905193903 | 84 | 50 | 0.0 | 0.9 | 0.00 | 0.00 | 0.00 | 29 | 1024.3 |
| 20260905193603 | 84 | 50 | 0.0 | 0.9 | 0.00 | 0.00 | 0.00 | 29 | 1024.2 |
| 20260905193303 | 84 | 49 | 0.0 | 0.9 | 0.00 | 0.00 | 0.00 | 29 | 1024.1 |
| 20260905193217 | 84 | 49 | 0.0 | 0.9 | 0.00 | 0.00 | 0.00 | 29 | 1024.2 |
| 20260905192703 | 84 | 50 | 0.9 | 0.9 | 0.00 | 0.00 | 0.00 | 29 | 1024.2 |
| 20260905192403 | 84 | 51 | 0.0 | 0.9 | 0.00 | 0.00 | 0.00 | 29 | 1024.3 |
| 20260905192103 | 84 | 52 | 0.0 | 0.9 | 0.00 | 0.00 | 0.00 | 29 | 1024.3 |
| 20260905191803 | 84 | 54 | 0.0 | 0.9 | 0.00 | 0.00 | 0.00 | 29 | 1024.3 |
| 20260905191503 | 84 | 55 | 0.9 | 1.7 | 0.00 | 0.00 | 0.00 | 29 | 1024.0 |
| 20260905191203 | 84 | 49 | 0.9 | 1.7 | 0.00 | 0.00 | 0.00 | 28 | 1024.1 |
| 20260905190903 | 84 | 19 | 0.9 | 2.6 | 0.00 | 0.00 | 0.00 | 29 | 1024.1 |
| 20260905190603 | 84 | 360 | 0.9 | 2.6 | 0.00 | 0.00 | 0.00 | 28 | 1024.4 |
| 20260905190303 | 84 | 355 | 0.9 | 2.6 | 0.00 | 0.00 | 0.00 | 28 | 1024.3 |
| 20260905190003 | 84 | 359 | 0.9 | 2.6 | 0.00 | 0.00 | 0.00 | 29 | 1024.2 |
| 20260905185704 | 84 | 23 | 0.9 | 2.6 | 0.00 | 0.00 | 0.00 | 29 | 1024.4 |
| 20260905185403 | 84 | 42 | 0.9 | 3.5 | 0.00 | 0.00 | 0.00 | 29 | 1024.1 |
| 20260905185103 | 84 | 55 | 1.7 | 3.5 | 0.00 | 0.00 | 0.00 | 29 | 1024.2 |
| 20260905184803 | 85 | 57 | 1.7 | 3.5 | 0.00 | 0.00 | 0.00 | 29 | 1023.9 |
| 20260905184503 | 85 | 53 | 1.7 | 3.5 | 0.00 | 0.00 | 0.00 | 29 | 1024.2 |
| 20260905184203 | 85 | 49 | 1.7 | 3.5 | 0.00 | 0.00 | 0.00 | 29 | 1024.1 |
| 20260905183903 | 85 | 49 | 1.7 | 3.5 | 0.00 | 0.00 | 0.00 | 29 | 1024.1 |
| 20260905183818 | 85 | 47 | 1.7 | 3.5 | 0.00 | 0.00 | 0.00 | 29 | 1024.1 |
| 20260905183303 | 85 | 36 | 0.9 | 3.5 | 0.00 | 0.00 | 0.00 | 30 | 1024.0 |
| 20260905183217 | 85 | 35 | 0.9 | 3.5 | 0.00 | 0.00 | 0.00 | 29 | 1024.3 |
| 20260905182703 | 85 | 31 | 0.9 | 2.6 | 0.00 | 0.00 | 0.00 | 29 | 1024.2 |
| 20260905182404 | 85 | 21 | 0.9 | 2.6 | 0.00 | 0.00 | 0.00 | 30 | 1023.9 |
| 20260905182103 | 85 | 34 | 0.9 | 5.2 | 0.00 | 0.00 | 0.00 | 29 | 1024.1 |
| 20260905181803 | 85 | 45 | 1.7 | 5.2 | 0.00 | 0.00 | 0.00 | 29 | 1024.0 |
| 20260905181504 | 85 | 54 | 1.7 | 5.2 | 0.00 | 0.00 | 0.00 | 29 | 1023.9 |
| 20260905181204 | 85 | 53 | 1.7 | 5.2 | 0.00 | 0.00 | 0.00 | 29 | 1023.8 |
| 20260905180903 | 85 | 50 | 1.7 | 3.5 | 0.00 | 0.00 | 0.00 | 29 | 1023.9 |
| 20260905180603 | 85 | 52 | 1.7 | 3.5 | 0.00 | 0.00 | 0.00 | 29 | 1023.9 |
| 20260905180303 | 85 | 48 | 1.7 | 3.5 | 0.00 | 0.00 | 0.00 | 29 | 1023.9 |
| 20260905180003 | 85 | 46 | 1.7 | 3.5 | 0.00 | 0.00 | 0.00 | 29 | 1023.9 |
| 20260905175703 | 85 | 40 | 0.9 | 3.5 | 0.00 | 0.00 | 0.00 | 29 | 1023.9 |
| 20260905175404 | 85 | 44 | 0.9 | 3.5 | 0.00 | 0.00 | 0.00 | 29 | 1023.8 |
| 20260905175103 | 85 | 47 | 0.9 | 3.5 | 0.00 | 0.00 | 0.00 | 28 | 1023.8 |
| 20260905175018 | 86 | 48 | 0.9 | 3.5 | 0.00 | 0.00 | 0.00 | 29 | 1023.8 |
| 20260905174504 | 86 | 56 | 2.6 | 6.1 | 0.00 | 0.00 | 0.00 | 28 | 1023.5 |
| 20260905174204 | 86 | 56 | 2.6 | 7.0 | 0.00 | 0.00 | 0.00 | 28 | 1023.8 |
| 20260905174118 | 86 | 55 | 3.5 | 7.0 | 0.00 | 0.00 | 0.00 | 28 | 1023.5 |
| 20260905173603 | 86 | 53 | 2.6 | 7.0 | 0.00 | 0.00 | 0.00 | 28 | 1023.5 |
| 20260905173303 | 86 | 54 | 2.6 | 7.0 | 0.00 | 0.00 | 0.00 | 28 | 1023.7 |
| 20260905173003 | 86 | 56 | 2.6 | 7.0 | 0.00 | 0.00 | 0.00 | 28 | 1023.5 |
| 20260905172703 | 86 | 60 | 2.6 | 7.0 | 0.00 | 0.00 | 0.00 | 28 | 1023.5 |
| 20260905172403 | 86 | 60 | 3.5 | 7.0 | 0.00 | 0.00 | 0.00 | 28 | 1023.5 |
| 20260905172103 | 86 | 52 | 2.6 | 7.0 | 0.00 | 0.00 | 0.00 | 28 | 1023.4 |
| 20260905171804 | 86 | 51 | 3.5 | 7.8 | 0.00 | 0.00 | 0.00 | 29 | 1023.4 |
| 20260905171718 | 86 | 50 | 3.5 | 7.8 | 0.00 | 0.00 | 0.00 | 29 | 1023.2 |
| 20260905171203 | 86 | 56 | 4.3 | 8.7 | 0.00 | 0.00 | 0.00 | 28 | 1023.2 |
| 20260905170903 | 87 | 59 | 3.5 | 8.7 | 0.00 | 0.00 | 0.00 | 28 | 1023.2 |
| 20260905170604 | 87 | 59 | 3.5 | 8.7 | 0.00 | 0.00 | 0.00 | 29 | 1023.1 |
| 20260905170303 | 87 | 59 | 3.5 | 7.8 | 0.00 | 0.00 | 0.00 | 28 | 1023.3 |
| 20260905170216 | 87 | 59 | 3.5 | 7.8 | 0.00 | 0.00 | 0.00 | 28 | 1023.1 |
| 20260905165916 | 87 | 60 | 3.5 | 7.8 | 0.00 | 0.00 | 0.00 | 28 | 1023.2 |
| 20260905165403 | 87 | 55 | 3.5 | 7.0 | 0.00 | 0.00 | 0.00 | 28 | 1023.0 |
| 20260905165318 | 87 | 54 | 3.5 | 7.0 | 0.00 | 0.00 | 0.00 | 28 | 1023.1 |
| 20260905164803 | 88 | 51 | 2.6 | 6.1 | 0.00 | 0.00 | 0.00 | 27 | 1023.1 |
| 20260905164503 | 88 | 52 | 3.5 | 7.0 | 0.00 | 0.00 | 0.00 | 26 | 1023.1 |
| 20260905164203 | 88 | 53 | 3.5 | 9.6 | 0.00 | 0.00 | 0.00 | 26 | 1023.2 |
| 20260905163904 | 88 | 48 | 4.3 | 9.6 | 0.00 | 0.00 | 0.00 | 26 | 1022.9 |
| 20260905163603 | 88 | 45 | 3.5 | 9.6 | 0.00 | 0.00 | 0.00 | 26 | 1023.0 |
| 20260905163517 | 89 | 42 | 3.5 | 9.6 | 0.00 | 0.00 | 0.00 | 26 | 1023.0 |
| 20260905163003 | 89 | 41 | 2.6 | 7.8 | 0.00 | 0.00 | 0.00 | 24 | 1023.1 |
| 20260905162703 | 89 | 46 | 2.6 | 7.0 | 0.00 | 0.00 | 0.00 | 24 | 1023.2 |
| 20260905162618 | 89 | 48 | 2.6 | 8.7 | 0.00 | 0.00 | 0.00 | 25 | 1023.3 |
| 20260905162318 | 89 | 48 | 3.5 | 8.7 | 0.00 | 0.00 | 0.00 | 24 | 1023.2 |
| 20260905162017 | 89 | 49 | 3.5 | 8.7 | 0.00 | 0.00 | 0.00 | 24 | 1023.2 |
| 20260905161503 | 89 | 39 | 3.5 | 8.7 | 0.00 | 0.00 | 0.00 | 24 | 1023.4 |
| 20260905161203 | 89 | 41 | 3.5 | 8.7 | 0.00 | 0.00 | 0.00 | 24 | 1023.3 |
| 20260905160903 | 89 | 37 | 4.3 | 12.2 | 0.00 | 0.00 | 0.00 | 24 | 1023.2 |
| 20260905160603 | 89 | 38 | 4.3 | 12.2 | 0.00 | 0.00 | 0.00 | 24 | 1023.1 |
| 20260905160303 | 89 | 42 | 4.3 | 12.2 | 0.00 | 0.00 | 0.00 | 24 | 1023.2 |
| 20260905160004 | 89 | 42 | 4.3 | 8.7 | 0.00 | 0.00 | 0.00 | 24 | 1023.5 |
| 20260905155703 | 90 | 47 | 3.5 | 7.8 | 0.00 | 0.00 | 0.00 | 24 | 1023.4 |
| 20260905155403 | 90 | 46 | 3.5 | 8.7 | 0.00 | 0.00 | 0.00 | 24 | 1023.2 |
| 20260905155103 | 90 | 46 | 3.5 | 8.7 | 0.00 | 0.00 | 0.00 | 24 | 1023.3 |
| 20260905155017 | 90 | 46 | 3.5 | 8.7 | 0.00 | 0.00 | 0.00 | 24 | 1023.2 |
| 20260905154503 | 90 | 48 | 3.5 | 8.7 | 0.00 | 0.00 | 0.00 | 23 | 1023.1 |
| 20260905154203 | 90 | 46 | 3.5 | 8.7 | 0.00 | 0.00 | 0.00 | 23 | 1023.1 |
| 20260905154117 | 90 | 41 | 3.5 | 8.7 | 0.00 | 0.00 | 0.00 | 23 | 1023.2 |
| 20260905153603 | 90 | 36 | 3.5 | 7.8 | 0.00 | 0.00 | 0.00 | 23 | 1023.3 |
| 20260905153304 | 90 | 36 | 3.5 | 7.8 | 0.00 | 0.00 | 0.00 | 24 | 1023.4 |
| 20260905153218 | 90 | 35 | 3.5 | 7.8 | 0.00 | 0.00 | 0.00 | 24 | 1023.2 |
| 20260905152918 | 90 | 38 | 3.5 | 7.8 | 0.00 | 0.00 | 0.00 | 24 | 1023.3 |
| 20260905152618 | 90 | 31 | 4.3 | 8.7 | 0.00 | 0.00 | 0.00 | 23 | 1023.3 |
| 20260905152103 | 90 | 30 | 4.3 | 8.7 | 0.00 | 0.00 | 0.00 | 24 | 1023.5 |
| 20260905151803 | 90 | 30 | 4.3 | 8.7 | 0.00 | 0.00 | 0.00 | 24 | 1023.4 |
| 20260905151503 | 90 | 31 | 4.3 | 9.6 | 0.00 | 0.00 | 0.00 | 24 | 1023.3 |
| 20260905151204 | 90 | 28 | 4.3 | 9.6 | 0.00 | 0.00 | 0.00 | 24 | 1023.3 |
| 20260905150903 | 91 | 32 | 4.3 | 9.6 | 0.00 | 0.00 | 0.00 | 23 | 1023.2 |
| 20260905150603 | 90 | 29 | 3.5 | 8.7 | 0.00 | 0.00 | 0.00 | 23 | 1023.1 |
| 20260905150304 | 91 | 33 | 3.5 | 8.7 | 0.00 | 0.00 | 0.00 | 23 | 1023.7 |
| 20260905150003 | 91 | 33 | 3.5 | 7.8 | 0.00 | 0.00 | 0.00 | 23 | 1023.1 |
| 20260905145703 | 91 | 27 | 3.5 | 8.7 | 0.00 | 0.00 | 0.00 | 23 | 1023.3 |
| 20260905145403 | 91 | 27 | 3.5 | 8.7 | 0.00 | 0.00 | 0.00 | 23 | 1023.2 |
| 20260905145103 | 90 | 34 | 3.5 | 8.7 | 0.00 | 0.00 | 0.00 | 23 | 1023.3 |
| 20260905144804 | 91 | 38 | 3.5 | 7.8 | 0.00 | 0.00 | 0.00 | 23 | 1023.1 |
| 20260905144503 | 91 | 32 | 3.5 | 7.8 | 0.00 | 0.00 | 0.00 | 23 | 1023.2 |
| 20260905144203 | 91 | 12 | 3.5 | 11.3 | 0.00 | 0.00 | 0.00 | 23 | 1023.3 |
| 20260905143904 | 91 | 7 | 3.5 | 11.3 | 0.00 | 0.00 | 0.00 | 23 | 1023.1 |
| 20260905143604 | 91 | 9 | 4.3 | 11.3 | 0.00 | 0.00 | 0.00 | 24 | 1023.3 |
| 20260905143303 | 90 | 14 | 4.3 | 11.3 | 0.00 | 0.00 | 0.00 | 24 | 1023.1 |
| 20260905143003 | 91 | 19 | 5.2 | 13.9 | 0.00 | 0.00 | 0.00 | 24 | 1023.2 |
| 20260905142917 | 91 | 23 | 5.2 | 13.9 | 0.00 | 0.00 | 0.00 | 24 | 1023.2 |
| 20260905142403 | 91 | 27 | 5.2 | 13.9 | 0.00 | 0.00 | 0.00 | 23 | 1023.1 |
| 20260905142103 | 91 | 16 | 5.2 | 12.2 | 0.00 | 0.00 | 0.00 | 23 | 1023.0 |
| 20260905141803 | 91 | 7 | 5.2 | 12.2 | 0.00 | 0.00 | 0.00 | 23 | 1023.4 |
| 20260905141503 | 91 | 2 | 6.1 | 13.0 | 0.00 | 0.00 | 0.00 | 23 | 1023.3 |
| 20260905141203 | 91 | 10 | 5.2 | 13.0 | 0.00 | 0.00 | 0.00 | 23 | 1023.1 |
| 20260905140903 | 91 | 18 | 5.2 | 13.0 | 0.00 | 0.00 | 0.00 | 23 | 1023.2 |
| 20260905140818 | 91 | 10 | 6.1 | 13.0 | 0.00 | 0.00 | 0.00 | 23 | 1023.0 |
| 20260905140304 | 91 | 359 | 5.2 | 13.0 | 0.00 | 0.00 | 0.00 | 23 | 1023.0 |
| 20260905140004 | 92 | 351 | 5.2 | 13.0 | 0.00 | 0.00 | 0.00 | 23 | 1023.2 |
| 20260905135703 | 91 | 357 | 5.2 | 12.2 | 0.00 | 0.00 | 0.00 | 22 | 1023.1 |
| 20260905135403 | 92 | 360 | 5.2 | 11.3 | 0.00 | 0.00 | 0.00 | 22 | 1023.1 |
| 20260905135103 | 92 | 358 | 5.2 | 11.3 | 0.00 | 0.00 | 0.00 | 22 | 1023.2 |
| 20260905134805 | 92 | 341 | 4.3 | 11.3 | 0.00 | 0.00 | 0.00 | 23 | 1023.0 |
| 20260905134504 | 92 | 341 | 4.3 | 11.3 | 0.00 | 0.00 | 0.00 | 22 | 1023.0 |
| 20260905134203 | 92 | 334 | 2.6 | 8.7 | 0.00 | 0.00 | 0.00 | 22 | 1023.0 |
| 20260905133903 | 92 | 4 | 3.5 | 12.2 | 0.00 | 0.00 | 0.00 | 22 | 1023.1 |
| 20260905133603 | 92 | 355 | 4.3 | 12.2 | 0.00 | 0.00 | 0.00 | 23 | 1023.3 |
| 20260905133303 | 91 | 357 | 4.3 | 12.2 | 0.00 | 0.00 | 0.00 | 24 | 1023.0 |
| 20260905133003 | 92 | 359 | 4.3 | 12.2 | 0.00 | 0.00 | 0.00 | 23 | 1023.2 |
| 20260905132703 | 91 | 22 | 3.5 | 9.6 | 0.00 | 0.00 | 0.00 | 24 | 1023.2 |
| 20260905132403 | 91 | 44 | 3.5 | 9.6 | 0.00 | 0.00 | 0.00 | 25 | 1023.2 |
| 20260905132104 | 90 | 40 | 4.3 | 9.6 | 0.00 | 0.00 | 0.00 | 25 | 1023.4 |
| 20260905131803 | 91 | 37 | 3.5 | 8.7 | 0.00 | 0.00 | 0.00 | 25 | 1023.2 |
| 20260905131503 | 92 | 41 | 2.6 | 7.0 | 0.00 | 0.00 | 0.00 | 25 | 1023.2 |
| 20260905131203 | 92 | 45 | 3.5 | 8.7 | 0.00 | 0.00 | 0.00 | 24 | 1023.2 |
| 20260905130903 | 91 | 55 | 4.3 | 12.2 | 0.00 | 0.00 | 0.00 | 25 | 1023.2 |
| 20260905130603 | 91 | 58 | 5.2 | 12.2 | 0.00 | 0.00 | 0.00 | 25 | 1023.4 |
| 20260905130517 | 91 | 58 | 5.2 | 12.2 | 0.00 | 0.00 | 0.00 | 25 | 1023.4 |
| 20260905130003 | 91 | 61 | 5.2 | 12.2 | 0.00 | 0.00 | 0.00 | 25 | 1023.4 |
| 20260905125704 | 90 | 64 | 6.1 | 12.2 | 0.00 | 0.00 | 0.00 | 25 | 1023.2 |
| 20260905125403 | 90 | 72 | 6.1 | 12.2 | 0.00 | 0.00 | 0.00 | 26 | 1023.2 |
| 20260905125103 | 90 | 67 | 6.1 | 12.2 | 0.00 | 0.00 | 0.00 | 25 | 1023.3 |
| 20260905124803 | 91 | 60 | 5.2 | 11.3 | 0.00 | 0.00 | 0.00 | 25 | 1023.5 |
| 20260905124504 | 91 | 60 | 5.2 | 13.0 | 0.00 | 0.00 | 0.00 | 24 | 1023.3 |
| 20260905124203 | 91 | 66 | 5.2 | 13.0 | 0.00 | 0.00 | 0.00 | 24 | 1023.2 |
| 20260905123903 | 91 | 72 | 5.2 | 13.0 | 0.00 | 0.00 | 0.00 | 24 | 1023.4 |
| 20260905123603 | 91 | 70 | 5.2 | 13.0 | 0.00 | 0.00 | 0.00 | 25 | 1023.5 |
| 20260905123303 | 92 | 66 | 5.2 | 12.2 | 0.00 | 0.00 | 0.00 | 24 | 1023.3 |
| 20260905123003 | 91 | 65 | 5.2 | 12.2 | 0.00 | 0.00 | 0.00 | 24 | 1023.3 |
| 20260905122703 | 91 | 66 | 6.1 | 12.2 | 0.00 | 0.00 | 0.00 | 24 | 1023.3 |
| 20260905122403 | 91 | 64 | 5.2 | 12.2 | 0.00 | 0.00 | 0.00 | 24 | 1023.5 |
| 20260905122103 | 91 | 54 | 6.1 | 12.2 | 0.00 | 0.00 | 0.00 | 25 | 1023.5 |
| 20260905122018 | 91 | 54 | 6.1 | 12.2 | 0.00 | 0.00 | 0.00 | 25 | 1023.5 |
| 20260905121503 | 91 | 61 | 6.1 | 12.2 | 0.00 | 0.00 | 0.00 | 25 | 1023.4 |
| 20260905121203 | 91 | 74 | 6.1 | 13.9 | 0.00 | 0.00 | 0.00 | 25 | 1023.5 |
| 20260905120903 | 91 | 82 | 6.1 | 13.9 | 0.00 | 0.00 | 0.00 | 26 | 1023.5 |
| 20260905120603 | 91 | 70 | 7.0 | 14.8 | 0.00 | 0.00 | 0.00 | 25 | 1024.0 |
| 20260905120304 | 90 | 63 | 6.1 | 14.8 | 0.00 | 0.00 | 0.00 | 26 | 1023.8 |
| 20260905120003 | 91 | 47 | 5.2 | 14.8 | 0.00 | 0.00 | 0.00 | 26 | 1023.9 |
| 20260905115703 | 92 | 50 | 4.3 | 14.8 | 0.00 | 0.00 | 0.00 | 25 | 1023.8 |
| 20260905115403 | 90 | 54 | 4.3 | 11.3 | 0.00 | 0.00 | 0.00 | 26 | 1023.8 |
| 20260905115103 | 90 | 55 | 5.2 | 14.8 | 0.00 | 0.00 | 0.00 | 26 | 1023.8 |
| 20260905115018 | 91 | 56 | 5.2 | 14.8 | 0.00 | 0.00 | 0.00 | 26 | 1023.9 |
| 20260905114718 | 90 | 55 | 6.1 | 14.8 | 0.00 | 0.00 | 0.00 | 26 | 1024.0 |
| 20260905114203 | 90 | 61 | 6.1 | 14.8 | 0.00 | 0.00 | 0.00 | 26 | 1023.9 |
| 20260905113903 | 90 | 71 | 6.1 | 13.9 | 0.00 | 0.00 | 0.00 | 26 | 1024.0 |
| 20260905113603 | 89 | 69 | 7.0 | 13.9 | 0.00 | 0.00 | 0.00 | 27 | 1023.7 |
| 20260905113303 | 89 | 75 | 7.0 | 13.9 | 0.00 | 0.00 | 0.00 | 26 | 1024.0 |
| 20260905113003 | 90 | 80 | 7.0 | 16.5 | 0.00 | 0.00 | 0.00 | 27 | 1024.0 |
| 20260905112703 | 90 | 79 | 7.0 | 16.5 | 0.00 | 0.00 | 0.00 | 27 | 1024.1 |
| 20260905112403 | 90 | 74 | 6.1 | 16.5 | 0.00 | 0.00 | 0.00 | 27 | 1024.1 |
| 20260905112103 | 90 | 62 | 5.2 | 12.2 | 0.00 | 0.00 | 0.00 | 26 | 1023.9 |
| 20260905111803 | 90 | 55 | 6.1 | 13.0 | 0.00 | 0.00 | 0.00 | 26 | 1023.8 |
| 20260905111503 | 89 | 58 | 6.1 | 13.0 | 0.00 | 0.00 | 0.00 | 27 | 1024.1 |
| 20260905111204 | 89 | 63 | 6.1 | 13.0 | 0.00 | 0.00 | 0.00 | 27 | 1024.0 |
| 20260905110903 | 90 | 68 | 6.1 | 13.0 | 0.00 | 0.00 | 0.00 | 27 | 1024.1 |
| 20260905110603 | 90 | 73 | 5.2 | 11.3 | 0.00 | 0.00 | 0.00 | 26 | 1024.1 |
| 20260905110517 | 90 | 72 | 5.2 | 11.3 | 0.00 | 0.00 | 0.00 | 26 | 1024.1 |
| 20260905110004 | 90 | 77 | 6.1 | 14.8 | 0.00 | 0.00 | 0.00 | 27 | 1023.9 |
| 20260905105703 | 89 | 74 | 7.0 | 14.8 | 0.00 | 0.00 | 0.00 | 27 | 1023.8 |
| 20260905105403 | 89 | 69 | 7.0 | 14.8 | 0.00 | 0.00 | 0.00 | 27 | 1024.1 |
| 20260905105103 | 89 | 68 | 7.0 | 14.8 | 0.00 | 0.00 | 0.00 | 27 | 1024.0 |
| 20260905104803 | 89 | 65 | 7.0 | 13.9 | 0.00 | 0.00 | 0.00 | 27 | 1024.0 |
| 20260905104503 | 89 | 72 | 7.0 | 13.9 | 0.00 | 0.00 | 0.00 | 27 | 1023.9 |
| 20260905104203 | 89 | 71 | 7.0 | 13.9 | 0.00 | 0.00 | 0.00 | 27 | 1024.2 |
| 20260905104117 | 89 | 69 | 7.0 | 13.9 | 0.00 | 0.00 | 0.00 | 28 | 1024.0 |
| 20260905103603 | 89 | 71 | 7.0 | 18.2 | 0.00 | 0.00 | 0.00 | 27 | 1024.1 |
| 20260905103303 | 89 | 72 | 7.0 | 18.2 | 0.00 | 0.00 | 0.00 | 27 | 1023.9 |
| 20260905103003 | 89 | 71 | 7.0 | 18.2 | 0.00 | 0.00 | 0.00 | 27 | 1024.1 |
| 20260905102703 | 90 | 62 | 6.1 | 13.0 | 0.00 | 0.00 | 0.00 | 26 | 1023.8 |
| 20260905102403 | 90 | 61 | 5.2 | 13.9 | 0.00 | 0.00 | 0.00 | 27 | 1024.0 |
| 20260905102104 | 89 | 53 | 6.1 | 13.9 | 0.00 | 0.00 | 0.00 | 27 | 1023.9 |
| 20260905101804 | 89 | 61 | 7.0 | 13.9 | 0.00 | 0.00 | 0.00 | 27 | 1024.1 |
| 20260905101503 | 89 | 61 | 7.8 | 19.1 | 0.00 | 0.00 | 0.00 | 27 | 1024.1 |
| 20260905101203 | 89 | 64 | 7.8 | 19.1 | 0.00 | 0.00 | 0.00 | 27 | 1024.2 |
| 20260905100903 | 89 | 59 | 7.0 | 19.1 | 0.00 | 0.00 | 0.00 | 26 | 1024.2 |
| 20260905100603 | 90 | 52 | 6.1 | 13.9 | 0.00 | 0.00 | 0.00 | 26 | 1024.2 |
| 20260905100303 | 90 | 54 | 7.0 | 18.2 | 0.00 | 0.00 | 0.00 | 25 | 1024.0 |
| 20260905100218 | 90 | 47 | 6.1 | 18.2 | 0.00 | 0.00 | 0.00 | 26 | 1024.2 |
| 20260905095703 | 89 | 59 | 7.0 | 18.2 | 0.00 | 0.00 | 0.00 | 27 | 1024.1 |
| 20260905095403 | 89 | 62 | 6.1 | 13.9 | 0.00 | 0.00 | 0.00 | 26 | 1024.2 |
| 20260905095103 | 89 | 59 | 6.1 | 13.9 | 0.00 | 0.00 | 0.00 | 26 | 1024.1 |
| 20260905094803 | 89 | 54 | 5.2 | 13.0 | 0.00 | 0.00 | 0.00 | 27 | 1024.2 |
| 20260905094503 | 89 | 52 | 6.1 | 13.0 | 0.00 | 0.00 | 0.00 | 27 | 1024.1 |
| 20260905094203 | 89 | 51 | 7.0 | 13.9 | 0.00 | 0.00 | 0.00 | 27 | 1024.4 |
| 20260905093903 | 89 | 52 | 7.0 | 14.8 | 0.00 | 0.00 | 0.00 | 27 | 1024.3 |
| 20260905093603 | 89 | 54 | 7.0 | 14.8 | 0.00 | 0.00 | 0.00 | 27 | 1024.3 |
| 20260905093518 | 89 | 55 | 7.0 | 14.8 | 0.00 | 0.00 | 0.00 | 27 | 1024.3 |
| 20260905093003 | 89 | 56 | 5.2 | 13.9 | 0.00 | 0.00 | 0.00 | 27 | 1024.4 |
| 20260905092703 | 89 | 39 | 4.3 | 13.0 | 0.00 | 0.00 | 0.00 | 27 | 1024.3 |
| 20260905092403 | 88 | 40 | 4.3 | 12.2 | 0.00 | 0.00 | 0.00 | 28 | 1024.3 |
| 20260905092103 | 88 | 37 | 5.2 | 13.0 | 0.00 | 0.00 | 0.00 | 28 | 1024.6 |
| 20260905091803 | 88 | 38 | 6.1 | 13.0 | 0.00 | 0.00 | 0.00 | 29 | 1024.5 |
| 20260905091504 | 88 | 36 | 6.1 | 13.0 | 0.00 | 0.00 | 0.00 | 29 | 1024.3 |
| 20260905091203 | 89 | 42 | 5.2 | 13.0 | 0.00 | 0.00 | 0.00 | 29 | 1024.4 |
| 20260905090903 | 88 | 46 | 6.1 | 15.6 | 0.00 | 0.00 | 0.00 | 29 | 1024.4 |
| 20260905090603 | 88 | 56 | 7.0 | 15.6 | 0.00 | 0.00 | 0.00 | 29 | 1024.5 |
| 20260905090518 | 88 | 56 | 7.0 | 15.6 | 0.00 | 0.00 | 0.00 | 29 | 1024.5 |
| 20260905090003 | 88 | 44 | 7.0 | 15.6 | 0.00 | 0.00 | 0.00 | 29 | 1024.8 |
| 20260905085703 | 88 | 39 | 6.1 | 14.8 | 0.00 | 0.00 | 0.00 | 29 | 1024.6 |
| 20260905085403 | 88 | 38 | 5.2 | 14.8 | 0.00 | 0.00 | 0.00 | 29 | 1024.3 |
| 20260905085317 | 88 | 41 | 5.2 | 14.8 | 0.00 | 0.00 | 0.00 | 29 | 1024.5 |
| 20260905085017 | 88 | 44 | 6.1 | 14.8 | 0.00 | 0.00 | 0.00 | 29 | 1024.6 |
| 20260905084503 | 88 | 37 | 5.2 | 14.8 | 0.00 | 0.00 | 0.00 | 30 | 1024.5 |
| 20260905084203 | 89 | 34 | 5.2 | 14.8 | 0.00 | 0.00 | 0.00 | 29 | 1024.5 |
| 20260905083903 | 88 | 41 | 5.2 | 13.0 | 0.00 | 0.00 | 0.00 | 29 | 1024.5 |
| 20260905083603 | 87 | 43 | 5.2 | 13.0 | 0.00 | 0.00 | 0.00 | 29 | 1024.4 |
| 20260905083303 | 87 | 44 | 5.2 | 13.0 | 0.00 | 0.00 | 0.00 | 30 | 1024.5 |